Regional Weather Roundup
Issued by NWS

Home | Current Version | Previous Version | Graphics & Text | Print | Product List | Glossary On
Versions: 1 2 3 4 5 6 7 8 9 10 11 12 13 14 15 16 17 18 19 20 21 22 23 24 25 26 27 28 29 30 31 32 33 34 35 36 37 38 39 40 41 42 43 44 45 46 47 48 49 50
000
ASUS43 KMPX 220410
RWRMN
WEATHER ROUNDUP FOR MINNESOTA
NATIONAL WEATHER SERVICE TWIN CITIES/CHANHASSEN MN
1100 PM CDT TUE MAR 21 2017


NOTE: "FAIR" INDICATES FEW OR NO CLOUDS BELOW 12,000 FEET WITH NO
SIGNIFICANT WEATHER AND/OR OBSTRUCTIONS TO VISIBILITY. N/A MEANS
CURRENT SKY AND/OR WEATHER CONDITIONS ARE NOT AVAILABLE.

MNZ060>063-068>070-220500-
   Twin Cities Metro

CITY           SKY/WX    TMP DP  RH WIND       PRES   REMARKS
TWIN CITIES    CLEAR     27   5  39 N7        30.54R WCI  19
ST PAUL        CLEAR     27   6  41 N5        30.55R WCI  22
CRYSTAL        CLEAR     25   6  44 N3        30.53R
BLAINE         CLEAR     25   7  46 N5        30.54R WCI  19
LAKEVILLE      CLEAR     25  10  54 N5        30.52R WCI  19
EDEN PRAIRIE   CLEAR     26   8  46 N6        30.52R WCI  19
SOUTH ST PAUL  CLEAR     29   4  34 N6        30.54R WCI  23
LAKE ELMO      FAIR      27   9  46 N3        30.54R
$$
MNZ001>005-007-008-013>017-022>024-027-028-220500-
   Northwest Minnesota

CITY           SKY/WX    TMP DP  RH WIND       PRES   REMARKS
BEMIDJI        CLEAR     15   1  56 CALM      30.53S
HALLOCK        CLEAR     18   3  53 NE6       30.59S WCI   9
ROSEAU         CLEAR     19   7  58 NE6       30.57S WCI  11
WARROAD        CLEAR     18  10  73 CALM      30.57S
THIEF RVR FALL CLEAR     20   9  62 NE5       30.57R WCI  13
CROOKSTON      CLEAR     21  12  68 CALM      30.59S
FOSSTON        CLEAR     16   9  73 N3        30.56R
DETROIT LAKES  CLEAR     21  12  68 NE3       30.54R
MOORHEAD       CLEAR     21  18  86 N6        30.57S WCI  14
PARK RAPIDS    CLEAR     18   3  52 CALM      30.53R
MAHNOMEN       FAIR      19  12  76 NE3       30.55R
$$
MNZ006-009>011-018-025>026-220500-
   North Central Minnesota

CITY           SKY/WX    TMP DP  RH WIND       PRES   REMARKS
BAUDETTE       CLEAR     13   6  74 CALM      30.54S
FLAG ISLAND    CLEAR     18   1  49 NW3       30.56S
INTL FALLS     CLEAR     16   0  49 N6        30.55S WCI   7
WASKISH        CLEAR     16   5  62 NE3       30.55S
BIG FORK       CLEAR     16   1  53 CALM      30.54S
LONGVILLE      CLEAR     16   5  62 CALM      30.53S
GRAND RAPIDS   CLEAR     17   3  54 N5        30.54S WCI  10
CRANE LAKE     CLEAR      7   3  85 CALM      30.57R
ORR            CLEAR     10   0  61 CALM      30.51R
COOK           CLEAR     16   0  48 CALM      30.53S
WALKER         FAIR      17  -3  41 N3        30.53R
$$
MNZ012-019>021-037-220500-
   Northeast Minnesota

CITY           SKY/WX    TMP DP  RH WIND       PRES   REMARKS
DULUTH         CLEAR     19   3  49 N5        30.51R WCI  12
ELY            CLEAR     14  -2  48 CALM      30.52R
HIBBING        CLEAR     11   4  73 CALM      30.52R
EVELETH        CLEAR     18  -9  29 N5        30.53R WCI  11
DULUTH HARBOR  CLEAR     27   5  39 N13       30.57R WCI  16
TWO HARBORS    CLEAR     21   3  45 CALM      30.51R
SILVER BAY     CLEAR     18   0  45 CALM      30.51S
GRAND MARAIS     N/A     20  -2  38 VRB5      30.56R WCI  13
G MARAIS ARPRT CLEAR     10  -8  44 NW10      30.46S WCI  -3
$$
MNZ029>031-032-039>041-046>048-054>057-064-220500-
   West Central Minnesota

CITY           SKY/WX    TMP DP  RH WIND       PRES   REMARKS
FERGUS FALLS   CLEAR     19  10  68 CALM      30.59R
WHEATON        CLEAR     19  16  86 N3        30.57R
MORRIS         CLEAR     19  12  73 NE5       30.53R WCI  13
ALEXANDRIA     CLEAR     19   5  54 E7        30.52S WCI  10
ELBOW LAKE     FAIR      19  14  78 CALM      30.54S
WADENA         CLEAR     18   3  53 CALM      30.53S
GLENWOOD       CLEAR     19  10  68 NE6       30.53R WCI  11
APPLETON       CLEAR     23  16  74 CALM      30.53S
BENSON         CLEAR     21  12  68 CALM      30.55R
ORTONVILLE     CLEAR     21  16  79 NW3       30.53S
MADISON        CLEAR     25  18  74 N6        30.53S WCI  18
WILLMAR        FAIR      25  12  58 E5        30.54R WCI  19
$$
MNZ033>034-036-042>043-049>051-058-059-220500-
   Central Minnesota

CITY           SKY/WX    TMP DP  RH WIND       PRES   REMARKS
ST CLOUD       CLEAR     21  13  71 N5        30.54R WCI  15
SAUK CENTRE    FAIR      22   7  52 NE6       30.53S WCI  14
PAYNESVILLE      N/A     22   9  57 NE5       30.54R WCI  15
AITKIN         CLEAR     18   7  62 N3        30.52R
PINE RIVER     CLEAR     16   9  73 CALM      30.56R
BRAINERD       CLEAR     17   4  56 N5        30.54R WCI  10
STAPLES        CLEAR     19   5  53 CALM      30.54R
LONG PRAIRIE   FAIR      19   5  53 N5        30.53S WCI  13
LITTLE FALLS   CLEAR     19   5  53 CALM      30.55R
LITCHFIELD     CLEAR     25  10  54 NE6       30.54R WCI  18
BUFFALO        CLEAR     25   7  46 N3        30.55R
MAPLE LAKE     CLEAR     25  11  54 N5        30.54S WCI  19
HUTCHINSON     CLEAR     26  10  51 N6        30.54R WCI  19
$$
MNZ037-044-045-052-053-220500-
   East Central Minnesota

CITY           SKY/WX    TMP DP  RH WIND       PRES   REMARKS
PRINCETON      CLEAR     18  10  73 CALM      30.54R
MORA           CLEAR     21   9  58 CALM      30.55S
CAMBRIDGE      CLEAR     25  10  54 CALM      30.53R
RUSH CITY      CLEAR     22   6  51 N5        30.55R WCI  15
MOOSE LAKE     CLEAR     19   1  45 NE3       30.52R
HINCKLEY       FAIR      23   5  46 CALM      30.53S
CLOQUET        CLEAR     19  -2  38 CALM      30.52R
MCGREGOR       CLEAR     19   5  53 CALM      30.53S
$$
MNZ071>073-080-081-089-090-097-098-220500-
   Southwest Minnesota

CITY           SKY/WX    TMP DP  RH WIND       PRES   REMARKS
MONTEVIDEO     CLEAR     23  16  74 NE7       30.54S WCI  15
GRANITE FALLS  CLEAR     26  19  73 N5        30.54R WCI  20
CANBY          CLEAR     25  19  80 CALM      30.53S
MARSHALL       CLEAR     24  19  81 N5        30.51F WCI  18
REDWOOD FALLS  CLEAR     27  13  55 E6        30.52R WCI  20
OLIVIA         CLEAR     23  14  68 NE7       30.52S WCI  15
PIPESTONE      CLEAR     25  16  68 NE6       30.46S WCI  18
WINDOM         CLEAR     27  18  69 NE8       30.48S WCI  18
WORTHINGTON    CLEAR     26  20  77 N9        30.47S WCI  17
JACKSON        CLEAR     28  19  69 NE13      30.47R WCI  18
TRACY          CLEAR     26  21  80 N7        30.50S WCI  19
SLAYTON        CLEAR     25  19  78 N8        30.48S WCI  16
$$
MNZ065>067-074>077-082>085-091>093-220500-
   South Central Minnesota

CITY           SKY/WX    TMP DP  RH WIND       PRES   REMARKS
MANKATO        CLEAR     26  13  57 N8        30.52R WCI  18
NEW ULM        CLEAR     25  10  54 NE8       30.51S WCI  16
ST JAMES       CLEAR     27  19  74 CALM      30.51S
FAIRMONT       CLEAR     28  19  69 NE10      30.49S WCI  19
GLENCOE        CLEAR     26  13  57 N3        30.53R
FARIBAULT      CLEAR     27  12  54 N6        30.51R WCI  20
OWATONNA       CLEAR     27  10  50 N7        30.50R WCI  19
WASECA         CLEAR     27  16  63 N6        30.52R WCI  20
ALBERT LEA     CLEAR     27  16  63 N9        30.47S WCI  17
$$
MNZ078>079-086>088-094>096-220500-
   Southeast Minnesota

CITY           SKY/WX    TMP DP  RH WIND       PRES   REMARKS
ROCHESTER      CLEAR     26  10  50 N12       30.48R WCI  16
RED WING       CLEAR     28   7  40 CALM      30.53R
STANTON        CLEAR     28  15  57 N7        30.51R WCI  21
DODGE CENTER   PTCLDY    27  16  63 N7        30.48R WCI  19
WINONA         CLEAR     30  12  47 CALM      30.52R
AUSTIN         CLEAR     27  16  63 N7        30.47S WCI  19
PRESTON        CLEAR     27  13  57 N6        30.47R WCI  20
$$
ABBREVIATIONS USED IN REMARKS
   TC - TEMPERATURES IN CELSIUS
  WCI - WIND CHILL INDEX
   HX - HEAT INDEX
  VSB - VISIBILITY
$$




USA.gov is the U.S. government's official web portal to all federal, state and local government web resources and services.